Location: Black Swamp Observatory
(41.3920°N, 84.1250°W)
Time: 03:43:32
(UTC-04:00)

Courier 1B Rocket - Pass Details

Date: 26 January 2022
Orbit: 920 x 1202 km, 28.2° (Epoch: 28 May)

Event Time Altitude Azimuth Distance (km) Brightness Sun altitude
Exits shadow 04:37:00 18° 155° (SSE) 2,231 7.0 -36.8°
Drops below altitude 10° 04:39:12 10° 139° (SE) 2,734 7.7 -36.4°
Sets 04:42:17 0° 125° (SE) 3,640 8.6 -35.8°
